Погода в Оренбурге

Погода в Оренбурге : погода сейчас, прогноз погоды и архив. Всё, что Вы хотите узнать о погоде в Оренбурге!

Хотите узнать прогноз погоды в Оренбурге? Тогда Вам сюда: Погода в Оренбурге

Поиск расширенной информации на нашем сайте:

Полезная информация:

Другие новости

Новости СМИ2

Главная страница сайта

Новости сайта

03.07.2017

Напоминаем, что на нашем специализированном сайте Метеоцентр.Азия вы можете получить высокодетализированные автоматические прогнозы погоды по пунктам России, СНГ и мира в авиационном формате (включающие направление и скорость ветра, видимость, явления погоды, количество и форму облачности, нижнюю и верхнюю границу облачности).

Рекомендуем:

Погода в Оренбурге - сегодня

Время (UTC), дата Ветер
(°,м/с) 
Видим.   Явления Облачность Т
(°С)
Тd
(°С)
f(%) Тe
(°С)
Pmin
(гПа)
dP
(гПа)
Po
(мм)
O2
(г/м3)
Тmin Tmax R s Состояние
почвы
03 19.03.19 070 (В) 20000 м  {снег}  10/0 средняя 
[As trans]
-1 -4.6 77 -2  1026.1  758  307  -1    16  равномерный
мокрый или
старый снег
100% 
06 19.03.19 090 (В) 20000 м  {снег}  10/0 средняя 
[Ac As]
+0 -4.6 71 -2  1026.7  0.7  759  306  -1         
09 19.03.19 090 (В) 20000 м    10/8 1020 м средняя 
[Sc|Ac As]
+0.6 -4.5 69 -1  1026.8  0.1  759  306           
12 19.03.19 060 (СВ) 20000 м    10/8 960 м средняя 
[Sc|Ac As]
+0.7 -4.1 70 -1  1026.7  -0.1  759  305           
15 19.03.19 080 (В) 20000 м    10/10 1080 м 
[Sc]
+0.4 -3.6 74 +1  1027.1  0.4  759  306    +1       
18 19.03.19 060 (СВ) 20000 м    10/10 1200 м 
[Sc]
+0.7 -3 76 1027.6  0.5  760  306           
21 19.03.19 090 (В) 20000 м    10/10 1140 м 
[Sc]
+0.3 -2.2 83 +1  1027.1  -0.5  759  306           
00 20.03.19 030 (СВ) 20000 м    10/10 1170 м 
[Sc]
+0.4 -2.6 80 1026.5  -0.6  759  306           
03 20.03.19 050 (СВ) 20000 м    10/0 средняя 
[Ac As]
+0.2 -4.6 70 -1  1026.5  759  306  -0.2      10  равномерный
мокрый или
старый снег
100% 
06 20.03.19 030 (СВ) 20000 м    9/0 средняя 
[Ac trans]
+2 -4.9 60 +1  1026.2  -0.2  759  304           
09 20.03.19 070 (В) 20000 м    8/0 средняя 
[Ac trans]
+4.4 -4.5 52 +4  1025.4  -0.7  758  301           
12 20.03.19 180 (Ю) 20000 м    ясно 
+3.9 -3.6 58 +3  1024.7  -0.7  758  301           
15 20.03.19 200 (Ю) 20000 м    ясно 
+1.8 -3.3 69 +3  1024.4  -0.5  757  303    +5.4       
18 20.03.19 360 (С) 20000 м    ясно 
-0.8 -3.9 79 1024.3  -0.3  757  306           
21 20.03.19 350 (С) 20000 м    4/0 средняя 
[Ac trans]
-2.5 -4.7 85 -4  1023.5  -0.9  756  308           
00 21.03.19 310 (СЗ) 20000 м    8/0 средняя 
[Ac trans]
-1.7 -4 84 -1  1022.6  -0.8  756  307           
03 21.03.19 330 (СЗ) 20000 м    9/0 средняя 
[Ac trans]
-1.7 -3.9 85 -1  1022  -0.6  755  307  -2.6      10  равномерный
сухой снег
100% 
06 21.03.19 330 (СЗ) 20000 м    10/0 средняя 
[Ac As]
+0.1 -4.7 70 +1  1021.8  755  305           
09 21.03.19 170 (Ю) 20000 м    10/0 средняя 
[Ac As]
+2.2 -3.2 67 +3  1021.1  -0.5  755  302           
12 21.03.19 180 (Ю) 20000 м    10/0 средняя 
[Ac As]
+2.7 -3.3 65 +3  1020.3  -0.8  754  301           
15 21.03.19 170 (Ю) 20000 м    9/0 средняя 
[Ac As]
+2 -2.6 72 +3  1019.6  -0.7  754  302    +3       
18 21.03.19 240 (ЮЗ) 20000 м    8/0 средняя 
[Ac As]
+0.3 -2.4 82 +1  1019.9  0.2  754  304           
21 21.03.19 тихо ()   20000 м    6/0 средняя 
[Ac As]
-0.6 -3.1 83 -1  1019.2  -0.8  753  305           
00 22.03.19 тихо ()   20000 м    3/0 средняя 
[Ac lent]
-2.7 -4.7 86 -3  1018.7  -0.5  753  307           
03 22.03.19 260 (З) 10 км    3/0 средняя 
[Ac lent]
-4.2 -5.1 93 -4  1018.8  753  309  -4.8      10  равномерный
сухой снег
100% 
Время (UTC), дата Ветер
(°,м/с) 
Видим.   Явления Облачность Т
(°С)
Тd
(°С)
f(%) Тe
(°С)
Pmin
(гПа)
dP
(гПа)
Po
(мм)
O2
(г/м3)
Тmin Tmax R s Состояние
почвы

Для получения пояснительной информации подведите курсор к названию столбца.

ПОГОДА в Оренбурге - архив

Всё, что Вы хотите узнать о погоде в Оренбурге - удобно и подробно!

Выберите нужную дату (начиная с 1 января 2018* года) и нажмите кнопку "Найти".
Будут отображены архивные сводки погоды по пункту Оренбург, начиная с указанной даты.


Отображать данные в формате CSV (для использования в таблицах Excel)


Внимание! Наш архив погоды предназначен исключительно для личного некоммерческого использования в познавательных целях. Если Вам необходимы официальные справки о состоянии погоды (для производственных, юридических, коммерческих и т.п. целей), обращайтесь в органы Росгидромета.

*Примечание: данная дата относится к архиву по метеостанциям СССР (Россия, СНГ, Балтия).
Архив по метеостанциям Зарубежной Европы и Азии (кроме Китая) хранится 10 дней, по другим регионам земного шара (Китай, Африка, Америка, Австралия, Океания) - 1 день.

Оренбург - район местоположения метеостанции


Название, широта, долгота, высота метеостанции:
Оренбург (город) 51.7°ш. 55.1°д. 117 м над ур. моря [Российская Федерация]

Дополнительная информация

В oтличие oт бoльшинства пoгoдных сайтoв мы публикуем пoдрoбную метеoинфoрмацию в детальнoм прoфессиoнальнoм фoрмате.

Характеристики температуры и влажнoсти вoздуха измеряются на высoте 2 м в тени вдали oт зданий и деревьев.
Скoрoсть ветра измеряется на высoте 10 м (на урoвне рoста челoвека скoрoсть ветра ниже в 1.5-2 раза). Если метеoстанция нахoдится в гoрoде или в лесу, тo скoрoсть ветра занижена на 2-4 м/с пo сравнению с oткрытым местoм. Скoрoсть ветра над акватoриями крупных рек и oзёр, а также на вершинах хoлмoв на 2-5 м/с выше, чем в oбычных услoвиях.
Атмoсфернoе давление в разных тoчках местнoсти мoжет значительнo oтличаться oт давления на метеoстанции, в зависимoсти oт услoвий рельефа (при пoдъёме на 10 м давление пoнижается примернo на 1 мм рт.ст.).